Location: Albuquerque Trailhead
(34.7934°N, 106.3736°W)
Time: 00:03:39
(UTC+00:00)

SL-24 R/B - Pass Details

Date: 20 June 2021
Orbit: 716 x 1117 km, 91.9° (Epoch: 27 July)

Event Time Altitude Azimuth Distance (km) Brightness Sun altitude
Rises 05:03:39 0° 5° (N) 3,130 8.5 -24.8°
Reaches altitude 10° 05:05:55 10° 6° (N) 2,203 7.5 -25.1°
Maximum altitude 05:10:45 85° 95° (E) 733 4.2 -25.6°
Enters shadow 05:10:46 85° 106° (ESE) 733 4.2 -25.6°
